STARLINK-4402 (53509 NORAD) Tracking and Keplerian Element Data

This shows tracking and keplerian element data for the satellite.

Feedback or suggestion? Click here.




ElementValue
Catalog53509
NameSTARLINK-4402
Epoch Orbit1552
Epoch Day325.25289278
Epoch Year2022
RAAN84.3119
Inclination97.6552
Eccentricity0.0001825
Argument of Perigee20.8442
Mean Anonmoly339.2856
Mean Motion15.01261995
Decay Rate-7.63E-06
L11 53509U 22099AW 22325.25289278 -.00000763 00000+0 -54814-4 0 9994
L22 53509 97.6552 84.3119 0001825 20.8442 339.2856 15.01261995 15528



Live tracking and technical data element details for STARLINK-4402 (NORAD 53509). STARLINK-4402 can be tracked NOW for your location showing map with azimuth and elevation plus other details from your city location.







IsCatalogInMostPopularTable: catalog: 53509, numindb: 13
Update: records affected: 1



GetName: 53509 STARLINK-4402

Hit Count: updated at: Thu, 08 Dec 2022 20:33:15 GMT